Flag for U.S.A. Weather past 2 weeks in State College, Pennsylvania, U.S.A.

Now
5 °F

Clear.


Feels Like: 5 °F
Forecast: 0 / 24 °F
Wind: No wind

Location: University Park Airport

Current Time: Feb 28, 2015 at 1:28:46 AM

Latest Report: Feb 28, 2015 at 12:55 AM


Visibility: 10 mi

Pressure: 30.62 "Hg

Humidity: 56%

Dew point: -7 °F

Location of State CollegeLocation

Historic Weather in State College — Graph

°F

State College temperature yesterday

Maximum temperature yesterday: 21 °F (at 1:53 PM)
Minimum temperature yesterday: 9 °F (at 11:55 PM)
Average temperature yesterday: 15 °F

Past Weeks' High & Low Weather Summary

 TemperatureHumidityPressure
High32 °F (Feb 22, 12:53 PM)100% (Feb 22, 5:53 AM)30.63 "Hg (Feb 22, 5:53 AM)
Low-10 °F (Feb 16, 3:55 AM)28% (Feb 23, 5:53 PM)29.40 "Hg (Feb 14, 3:53 PM)
Average12 °F62%30.04 "Hg
* Reported Feb 13 12:15 AM — Feb 28 12:15 AM, State College, Weather by CustomWeather, © 2015

Note: Actual official high and low records may vary slightly from our data, if they occured in-between our weather recording intervals... More about our weather records

Advertising

State College weather history for previous 24 hours

 ConditionsComfort  
Time TempWeatherWind HumidityBarometerVisibility
12:15 AM
Sat, Feb 28
9 °FClear.3 mph53%30.62 "Hg10 mi
11:55 PM
Fri, Feb 27
9 °FClear.No wind52%30.62 "Hg10 mi
11:35 PM10 °FClear.3 mph52%30.63 "Hg10 mi
11:15 PM10 °FClear.5 mph51%30.61 "Hg10 mi
10:15 PM11 °FClear.12 mph50%30.59 "Hg10 mi
9:55 PM11 °FClear.10 mph49%30.58 "Hg10 mi
8:53 PM12 °FClear.14 mph48%30.55 "Hg10 mi
7:53 PM14 °FClear.13 mph44%30.52 "Hg10 mi
6:53 PM16 °FClear.9 mph41%30.50 "Hg10 mi
5:53 PM18 °FPassing clouds.13 mph41%30.47 "Hg10 mi
4:53 PM19 °FPassing clouds.13 mph42%30.44 "Hg10 mi
3:53 PM19 °FPassing clouds.14 mph45%30.43 "Hg10 mi
2:53 PM21 °FPassing clouds.17 mph42%30.40 "Hg10 mi
1:53 PM21 °FScattered clouds.14 mph45%30.39 "Hg10 mi
12:53 PM19 °FScattered clouds.14 mph53%30.39 "Hg10 mi
11:53 AM18 °FPartly sunny.9 mph53%30.41 "Hg10 mi
10:53 AM16 °FScattered clouds.9 mph57%30.38 "Hg10 mi
9:53 AM14 °FPartly sunny.No wind62%30.38 "Hg10 mi
8:53 AM12 °FPartly sunny.3 mph67%30.38 "Hg7 mi
6:53 AM12 °FLight snow. More clouds than sun.No wind85%30.30 "Hg3 mi
5:53 AM12 °FLight snow. Mostly cloudy.No wind85%30.27 "Hg3 mi
5:35 AM13 °FLight snow. Overcast.No wind87%30.26 "Hg2 mi
5:15 AM13 °FLight snow. Mostly cloudy.No wind89%30.25 "Hg2 mi
4:55 AM13 °FLight snow. Overcast.3 mph87%30.24 "Hg2 mi
4:15 AM14 °FLight snow. Overcast.7 mph87%30.21 "Hg2 mi
3:55 AM14 °FLight snow. Mostly cloudy.6 mph87%30.20 "Hg2 mi
3:35 AM14 °FLight snow. Mostly cloudy.5 mph87%30.20 "Hg1 mi
3:15 AM15 °FLight snow. Mostly cloudy.5 mph87%30.19 "Hg2 mi
2:55 AM15 °FLight snow. Mostly cloudy.7 mph88%30.18 "Hg2 mi
2:35 AM16 °FLight snow. Mostly cloudy.5 mph88%30.18 "Hg2 mi
2:15 AM17 °FLight snow. Overcast.6 mph89%30.16 "Hg1 mi
1:55 AM17 °FLight snow. Overcast.3 mph89%30.16 "Hg2 mi
1:35 AM17 °FLight snow. Mostly cloudy.5 mph87%30.15 "Hg2 mi
1:15 AM18 °FSnow. Mostly cloudy.5 mph89%30.14 "Hg1 mi
Weather by CustomWeather, © 2015

See weather overviewHow to use our weather pages